Location: ?p Thanh B�nh
(16.5833°N, 107.5333°E)
Time: 10:16:35
(UTC+00:00)

Cosmos 1626 Rocket - Pass Details

Date: 29 October 2020
Orbit: 602 x 632 km, 82.5° (Epoch: 23 November)

Event Time Altitude Azimuth Distance (km) Brightness Sun altitude
Rises 22:15:48 0° 196° (SSW) 2,896 7.0 -8.1°
Reaches altitude 10° 22:18:06 10° 202° (SSW) 1,995 6.1 -7.5°
Maximum altitude 22:22:20 46° 276° (W) 848 3.9 -6.5°
Drops below altitude 10° 22:26:37 10° 349° (N) 2,007 6.0 -5.5°
Sets 22:28:56 0° 356° (N) 2,916 6.8 -5.0°
